Greenville, AL

3:07 AM CST on January 23, 2018 (GMT -0600)
Greenville Municipal

Weather History for KPRN - May, 2012

Change the Weather History Date:

Friday, May 25, 2012

  Actual Average Record
Temperature  
Mean Temperature 78 °F -  
Max Temperature 91 °F 86 °F 96 °F (1962)
Min Temperature 64 °F 62 °F 50 °F (1979)
Cooling Degree Days 12    
Growing Degree Days 28 (Base 50)    
Moisture  
Dew Point 67 °F    
Average Humidity 71    
Maximum Humidity 93    
Minimum Humidity 41    
Precipitation  
Precipitation 0.00 in - - ()
Sea Level Pressure  
Sea Level Pressure 30.03 in    
Wind  
Wind Speed 1 mph (North)    
Max Wind Speed 7 mph    
Max Gust Speed -    
Visibility 10 miles    
Events Hail    
Averages and records for this station are not official NWS values.
T = Trace of Precipitation, MM = Missing Value Source: NWS Daily Summary

Daily Weather History Graph

Daily Weather History Graph

Search for Another Location

Airport or City:

Trip Planner

Search our weather history database for the weather conditions in past years. The results will help you decide how hot, cold, wet, or windy it might be!

Date:

Astronomy

May. 25, 2012 Rise Set
Actual Time 5:43 AM CDT 7:43 PM CDT
Civil Twilight 5:16 AM CDT 8:10 PM CDT
Nautical Twilight 4:43 AM CDT 8:44 PM CDT
Astronomical Twilight 4:07 AM CDT 9:19 PM CDT
Moon 9:38 AM CDT (5/25) 11:25 PM CDT (5/25)
Length of Visible Light 14h 54m
Length of Day
13h 59m
Waxing Crescent, 20% of the Moon is Illuminated
May 25
Waxing Crescent
May 28
First Quarter
Jun 4
Full
Jun 11
Last Quarter
Jun 19
New

Hourly Weather History & Observations

Time (CDT) Temp. Heat Index Dew Point Humidity Pressure Visibility Wind Dir Wind Speed Gust Speed Precip Events Conditions
12:56 AM 73.0 °F - 66.9 °F 81% 29.94 in 10.0 mi Calm Calm - 0.00 in   Clear
1:45 AM - - - N/A% - - North - - N/A Hail Hail
1:56 AM 70.0 °F - 66.0 °F 87% 29.94 in 10.0 mi Calm Calm - N/A   Clear
2:56 AM 68.0 °F - 64.9 °F 90% 29.95 in 8.0 mi Calm Calm - N/A   Clear
3:56 AM 66.9 °F - 64.9 °F 93% 29.96 in 10.0 mi Calm Calm - N/A   Clear
4:56 AM 66.0 °F - 64.0 °F 93% 29.98 in 10.0 mi Calm Calm - N/A   Clear
5:56 AM 64.0 °F - 62.1 °F 93% 30.01 in 6.0 mi Calm Calm - N/A   Clear
6:30 AM - - - N/A% - - North - - N/A Hail Hail
6:56 AM 68.0 °F - 64.0 °F 87% 30.04 in 9.0 mi Calm Calm - N/A   Clear
7:56 AM 73.0 °F - 66.9 °F 81% 30.06 in 10.0 mi Calm Calm - N/A   Clear
8:56 AM 77.0 °F - 68.0 °F 74% 30.09 in 10.0 mi North 6.9 mph - N/A   Clear
9:56 AM 82.0 °F 84.9 °F 68.0 °F 62% 30.09 in 10.0 mi North 5.8 mph - N/A   Clear
10:30 AM - - - N/A% - - North - - N/A Hail Hail
10:56 AM 84.0 °F 87.8 °F 69.1 °F 61% 30.09 in 10.0 mi Variable 3.5 mph - N/A   Clear
11:56 AM 86.0 °F 90.1 °F 69.1 °F 57% 30.08 in 10.0 mi Variable 6.9 mph - N/A   Clear
12:56 PM 87.1 °F 89.9 °F 66.9 °F 51% 30.06 in 10.0 mi Calm Calm - N/A   Clear
1:56 PM 89.1 °F 90.0 °F 63.0 °F 42% 30.05 in 10.0 mi Calm Calm - N/A   Clear
2:56 PM 91.0 °F 93.0 °F 64.9 °F 42% 30.05 in 10.0 mi Calm Calm - N/A   Clear
3:56 PM 89.1 °F 91.3 °F 66.0 °F 46% 30.05 in 10.0 mi Calm Calm - N/A   Clear
4:56 PM 91.0 °F 92.6 °F 64.0 °F 41% 30.04 in 10.0 mi Calm Calm - N/A   Clear
5:56 PM 90.0 °F 91.7 °F 64.9 °F 43% 30.04 in 10.0 mi North 4.6 mph - N/A   Clear
6:56 PM 86.0 °F 90.1 °F 69.1 °F 57% 30.04 in 10.0 mi North 3.5 mph - N/A   Clear
7:56 PM 81.0 °F 84.4 °F 70.0 °F 69% 30.04 in 10.0 mi Calm Calm - N/A   Clear
8:56 PM 75.9 °F - 71.1 °F 85% 30.05 in 10.0 mi Calm Calm - N/A   Clear
9:56 PM 73.9 °F - 70.0 °F 87% 30.06 in 10.0 mi Calm Calm - N/A   Clear
10:56 PM 73.0 °F - 69.1 °F 87% 30.06 in 10.0 mi Calm Calm - N/A   Clear
11:56 PM 71.1 °F - 66.9 °F 87% 30.06 in 10.0 mi Calm Calm - N/A   Clear